Theta_e
311 310 309 309 309 308 307 306 304 302 301 302 303 305 305 305 306 307 310 310 312 313 315 326 327 327 328 328 329 328 331 333 332 330 330 328 326 324 326 327 325 323 324 325 324
309 309 310 309 309 309 308 307 307 307 305 302 301 302 304 304 306 310 310 311 311 311 317 325 328 327 326 328 328 329 331 334 333 329 328 327 325 324 324 323 326 325 325 325 324
306 307 309 309 310 309 308 308 307 307 307 306 304 301 301 304 313 312 317 316 318 311 315 316 326 327 327 328 328 330 334 332 331 328 327 327 328 325 325 324 324 324 325 323 322
307 307 308 308 309 307 308 309 308 307 307 306 306 305 300 305 308 314 317 314 317 315 319 318 317 320 328 330 329 331 331 331 331 329 329 328 328 326 325 324 324 323 325 323 322
305 307 307 306 306 306 308 309 309 308 308 307 307 307 306 313 308 312 316 312 318 318 320 318 316 317 318 323 329 331 331 331 330 329 328 328 327 326 325 325 323 323 324 323 322
300 301 304 306 307 305 305 307 308 308 308 308 308 310 310 306 306 308 309 311 315 320 321 318 316 317 316 318 320 323 326 329 329 328 327 327 327 325 326 325 323 322 322 321 320
306 305 299 300 305 307 305 305 304 305 306 306 310 312 311 308 304 308 311 311 311 314 318 319 318 318 316 317 318 318 320 321 322 323 324 324 325 325 325 324 322 320 320 320 320
307 306 305 303 299 303 305 304 303 304 306 308 311 312 312 308 306 306 307 307 309 313 316 318 318 315 315 315 318 319 319 321 322 322 324 323 327 324 323 324 323 322 320 319 318
306 306 306 306 305 301 299 302 303 303 305 308 311 311 310 306 308 307 306 308 309 310 311 316 317 316 317 316 317 318 321 321 321 321 323 324 325 324 324 325 324 323 322 321 320
305 305 305 306 305 304 298 300 302 305 307 309 311 312 310 310 309 309 309 309 310 313 313 314 319 320 314 317 322 322 320 321 322 323 323 323 323 324 325 324 323 322 323 323 322
305 304 304 305 305 305 301 300 305 311 309 312 311 310 312 310 313 314 311 310 312 313 313 314 319 318 321 318 319 321 321 321 322 323 324 324 325 326 326 324 322 321 322 323 323
304 304 305 305 305 304 303 303 304 307 307 308 311 311 310 310 312 313 314 313 312 313 313 313 315 316 315 316 317 318 320 322 322 322 322 323 326 326 325 325 323 323 323 323 325
303 303 303 304 305 303 302 304 307 306 308 310 310 312 312 312 313 313 314 315 313 312 313 313 315 318 317 316 320 320 320 321 325 324 323 323 325 326 326 326 325 324 322 324 326
303 303 303 304 305 303 301 305 304 305 311 312 312 313 313 313 316 314 315 316 315 312 313 313 314 316 317 315 315 321 322 322 324 326 326 324 327 323 324 324 324 322 322 324 324
303 303 304 304 305 304 303 303 305 307 310 308 309 312 312 314 317 317 316 315 316 315 313 313 313 314 314 314 315 320 322 323 324 326 323 324 324 323 323 325 324 323 324 324 323
303 303 304 304 305 304 305 305 305 310 312 309 309 309 312 313 314 320 317 315 316 315 314 314 314 313 313 315 315 318 321 321 322 323 325 324 325 327 324 325 325 322 325 324 324
302 303 303 304 304 305 305 303 311 314 309 309 308 307 309 314 314 317 319 316 317 316 314 315 315 315 314 313 316 317 318 322 323 326 328 324 326 327 323 324 324 325 326 325 325
303 302 303 303 303 304 305 307 313 308 308 307 307 308 310 308 310 316 319 317 315 314 314 315 317 316 316 315 314 314 317 322 327 327 326 324 325 325 323 323 323 327 326 326 325
303 304 304 304 304 305 306 310 307 308 306 307 307 308 308 308 309 311 317 319 316 316 315 314 316 318 317 317 315 315 315 318 322 325 324 324 325 325 325 325 327 326 327 326 325
304 303 303 304 304 305 307 307 307 306 306 306 307 307 308 307 308 310 313 317 318 316 315 315 316 317 317 316 316 315 319 322 320 326 327 325 326 328 323 327 328 328 326 325 325
303 302 303 305 305 306 307 307 305 304 307 307 307 307 307 307 307 310 311 316 317 318 316 316 316 320 316 317 316 315 316 321 321 322 325 325 325 322 324 322 329 327 326 326 325
303 305 304 305 307 306 305 304 306 305 306 306 307 308 308 309 309 311 312 314 313 314 320 316 314 317 318 317 317 316 316 320 324 324 322 323 323 323 321 328 328 327 327 325 325
302 300 304 304 307 305 304 305 306 306 306 306 307 308 309 310 309 312 314 313 312 314 316 319 316 317 321 319 319 316 317 320 319 321 324 323 323 323 327 328 329 328 327 326 325
302 302 302 302 302 305 306 307 306 306 306 307 306 305 308 309 309 309 310 310 311 312 316 315 318 316 319 321 320 320 318 323 322 323 323 324 325 326 327 331 329 328 327 325 326
300 304 305 303 304 305 305 305 306 306 304 305 305 305 307 308 310 309 309 308 311 313 311 311 319 316 316 318 321 322 320 321 325 323 325 323 324 324 324 331 330 328 326 325 326
298 304 302 302 303 303 304 304 306 307 306 307 307 308 308 309 310 312 309 309 313 312 311 310 316 319 316 317 317 319 321 322 324 324 323 323 325 323 323 330 330 328 327 326 326
303 302 303 304 301 300 302 306 306 308 307 307 308 308 308 308 310 310 311 311 311 311 311 311 316 320 318 318 317 318 319 323 324 324 324 324 321 321 324 327 330 327 327 326 326
Wind_Speed
18 18 19 18 18 18 18 19 19 18 17 16 16 16 16 20 21 21 15 19 16 20 20 6 11 16 9 5 6 4 2 8 7 7 11 12 4 7 4 3 4 4 8 8 30
18 18 19 19 19 20 20 19 18 18 18 17 17 17 15 18 19 18 33 30 31 23 20 15 7 8 4 4 5 6 6 13 14 10 10 16 5 7 4 7 4 2 3 18 32
17 18 17 18 18 19 20 19 18 18 17 17 17 17 14 13 6 10 1 7 9 26 28 20 10 7 6 2 7 7 14 20 18 15 15 18 20 8 5 6 7 8 9 11 10
17 17 17 17 18 20 20 21 20 19 17 17 17 18 13 1 7 2 8 15 6 21 21 12 6 5 6 9 18 7 12 18 23 22 19 19 19 9 7 10 5 13 17 11 11
20 19 19 20 20 20 20 20 21 20 20 19 17 16 6 5 10 16 14 20 5 13 24 13 8 8 13 8 13 15 22 21 20 21 20 21 18 17 9 11 6 12 15 18 16
21 21 21 21 21 22 21 21 21 21 21 20 17 14 4 13 20 33 36 23 20 9 14 16 10 14 3 10 15 12 14 16 17 18 18 16 21 5 11 10 7 12 17 16 15
22 22 21 22 22 23 24 24 24 24 23 20 16 11 10 18 14 14 17 26 24 27 12 24 24 4 4 11 17 15 14 15 12 15 22 10 16 10 11 9 10 13 13 12 16
23 23 23 22 23 24 25 27 29 27 24 19 13 11 10 13 19 28 36 44 29 23 21 24 25 7 6 5 7 6 5 7 14 13 19 7 22 14 13 9 12 11 9 13 14
23 24 25 25 24 25 28 33 36 34 28 18 11 6 11 8 12 37 41 23 36 20 25 14 7 8 2 12 5 4 13 14 15 10 13 8 17 12 13 17 18 10 11 11 12
24 24 24 25 25 27 29 35 40 22 12 8 11 2 8 9 13 15 24 30 11 6 5 6 7 8 5 5 9 11 6 6 16 16 8 11 13 18 17 11 14 10 10 10 8
23 24 25 25 24 24 27 16 4 3 6 10 13 10 3 23 13 10 14 21 11 5 13 13 9 16 24 25 19 9 6 9 20 19 6 8 15 22 16 5 9 10 10 10 6
28 26 24 22 24 24 24 2 5 4 11 17 24 25 32 13 7 11 21 8 13 18 8 8 26 22 18 16 15 13 12 16 22 18 5 14 17 21 10 7 9 12 10 5 6
26 26 26 24 21 19 7 12 17 19 7 12 20 19 21 17 13 20 7 6 7 13 19 25 9 19 20 14 13 17 18 21 19 17 8 9 14 13 11 4 3 7 8 12 18
26 25 24 24 15 10 9 8 27 14 4 7 9 10 18 9 12 26 13 7 9 21 21 17 22 17 19 18 17 18 19 19 20 12 8 7 5 5 7 7 4 9 4 9 15
24 24 22 15 16 8 15 30 34 1 5 4 4 5 8 24 13 16 31 14 17 14 12 11 20 25 21 27 22 20 14 18 17 14 8 21 2 8 6 6 8 9 6 10 16
22 21 21 15 13 22 22 30 12 2 8 6 8 12 2 18 12 2 16 8 12 13 19 18 9 20 25 18 22 24 11 9 8 8 7 16 4 13 5 7 6 1 6 9 11
24 21 19 12 8 10 18 9 1 6 9 2 14 20 18 6 16 7 9 20 11 13 19 13 21 16 11 23 16 12 7 3 3 6 9 10 6 18 7 9 8 8 10 10 12
25 23 22 20 20 17 10 1 8 7 13 19 18 19 10 20 11 14 6 19 23 14 12 15 11 25 23 23 19 23 13 6 7 4 4 7 7 11 10 7 8 11 14 13 12
24 15 8 15 10 10 2 6 3 5 9 15 19 8 10 20 11 9 21 14 23 21 8 15 16 6 25 15 20 8 19 15 3 3 2 4 6 9 1 6 10 11 13 12 12
11 8 8 15 8 5 1 8 3 10 15 14 8 7 17 17 12 17 5 7 17 23 8 5 6 16 16 17 19 25 6 6 1 11 6 4 3 5 3 8 9 10 11 9 9
6 3 3 9 7 1 2 4 6 14 11 7 11 11 15 16 13 12 9 9 19 6 16 12 4 5 16 20 28 7 17 6 6 6 7 4 8 7 12 12 14 15 13 15 14
5 2 3 6 1 1 2 3 6 11 12 11 6 6 9 13 14 8 8 9 21 21 10 21 5 9 16 1 19 14 9 17 7 5 2 6 8 5 8 16 17 12 13 12 15
4 3 5 4 1 1 3 8 11 13 12 5 6 10 13 12 8 6 9 8 15 19 14 7 15 6 7 2 4 19 16 11 5 4 8 7 7 4 3 11 14 15 12 13 12
3 3 2 3 2 1 3 6 4 7 12 12 6 7 10 11 12 8 13 10 20 21 12 7 5 27 15 11 7 7 18 13 9 5 6 12 5 5 6 12 8 10 14 15 16
2 2 2 3 2 5 4 4 10 6 6 5 4 7 11 9 10 15 17 19 15 9 11 6 8 18 29 15 3 4 17 20 14 13 13 7 10 8 11 14 18 16 13 14 15
0 3 4 4 5 5 4 3 9 10 5 9 7 9 6 10 13 13 12 8 6 7 12 6 6 7 21 30 23 15 8 23 20 9 8 11 7 8 15 15 13 16 18 18 18
3 2 1 4 4 3 2 9 11 14 9 5 10 12 12 10 8 8 5 6 9 14 9 4 5 7 20 19 20 18 21 12 17 15 13 10 8 8 7 15 19 15 20 20 19
Wind_Direction
332 332 331 334 336 334 334 333 332 326 318 312 308 306 313 310 307 304 254 242 265 269 247 199 199 219 209 210 199 129 126 258 241 230 261 294 297 277 259 286 241 207 156 209 175
323 322 321 322 324 327 329 328 327 325 325 317 313 307 306 309 317 281 270 278 262 246 214 206 183 193 251 223 204 165 174 241 240 254 265 277 220 272 301 314 309 56 41 139 159
318 314 311 306 309 311 314 319 321 320 321 323 319 312 308 322 347 252 148 23 267 226 231 223 211 158 228 147 221 207 226 245 265 258 260 272 286 270 270 291 239 200 173 154 148
323 318 314 309 304 303 305 307 310 313 315 320 322 322 312 234 232 229 169 19 320 216 211 217 203 209 208 216 241 257 249 245 258 266 270 268 271 262 237 247 247 186 177 161 168
323 325 322 317 314 308 301 299 301 303 307 310 319 326 328 217 230 214 244 306 295 180 205 201 180 203 219 233 250 247 245 248 254 264 268 270 267 258 249 261 173 183 172 180 183
329 318 317 320 315 309 304 302 298 297 299 303 308 318 223 240 246 249 257 255 259 216 208 203 218 219 308 231 237 252 256 258 269 271 268 274 272 230 267 258 202 174 194 192 184
328 330 321 311 313 313 308 302 296 291 289 293 299 288 247 242 247 256 237 247 255 230 218 217 219 188 184 256 262 267 270 276 271 272 267 283 277 253 257 262 215 203 197 198 201
327 324 322 321 311 310 309 305 297 292 288 288 279 256 248 261 262 257 245 260 253 238 235 236 223 213 214 288 311 298 288 263 261 262 268 197 269 276 264 245 222 223 214 202 203
324 324 320 320 319 313 307 305 298 294 288 278 275 212 272 280 233 241 233 222 239 234 237 237 184 191 209 223 278 241 255 256 273 255 266 215 271 270 278 253 238 204 220 223 226
322 318 317 316 317 320 315 307 308 291 291 233 232 303 263 235 232 237 236 219 219 199 205 194 214 197 200 176 219 222 232 244 256 252 266 275 267 266 260 234 217 215 228 225 214
323 320 315 315 314 317 322 337 5 63 262 206 199 209 343 217 280 223 178 182 189 205 195 193 196 213 209 220 229 244 246 256 260 263 268 260 266 267 267 238 228 229 237 235 170
325 323 321 312 313 313 309 243 226 298 291 253 257 234 260 298 302 273 159 150 182 201 158 215 222 212 224 228 228 231 243 255 273 266 243 274 284 267 262 234 209 227 236 154 123
324 322 321 319 314 304 273 254 298 305 265 272 232 232 222 243 238 260 209 186 174 188 198 208 219 202 207 213 218 223 227 242 255 282 259 268 282 275 285 261 207 245 229 163 164
322 321 318 321 308 316 273 294 323 316 283 270 211 236 191 216 252 222 218 206 203 197 207 232 224 203 214 221 214 238 221 234 246 264 258 146 267 287 246 267 286 289 204 164 166
321 319 318 309 292 299 288 325 330 148 300 222 220 185 176 187 130 207 203 194 216 179 180 203 187 211 222 217 212 233 226 238 247 253 254 277 255 260 266 276 274 268 170 176 170
322 316 316 302 261 265 312 320 316 113 249 300 63 348 137 212 230 91 175 169 188 222 218 211 188 206 220 224 213 230 240 243 259 245 238 251 177 275 219 224 262 15 163 148 146
321 311 303 263 257 273 311 326 319 212 315 130 356 345 320 189 228 250 181 189 180 197 219 216 218 220 191 209 219 200 183 250 270 214 229 231 216 248 226 230 213 174 169 154 150
321 308 293 265 269 274 305 75 222 239 260 302 349 340 49 19 340 230 245 194 211 189 178 207 218 211 208 205 207 222 204 191 187 205 221 207 221 255 231 269 200 164 156 150 148
321 317 269 286 246 243 218 215 212 353 304 345 352 356 351 351 334 333 219 221 205 202 158 195 226 242 204 202 191 202 211 212 214 293 132 215 273 329 55 111 125 143 147 159 153
326 311 283 334 229 192 150 231 282 334 315 331 342 347 330 334 338 354 298 269 229 215 219 212 197 233 211 199 225 218 157 164 311 216 221 274 225 221 160 160 153 151 164 154 142
321 342 308 22 164 168 209 211 273 273 322 324 327 312 317 327 322 327 279 30 31 313 223 250 59 326 200 205 206 177 211 209 170 170 192 209 254 210 200 182 166 177 170 162 160
313 305 322 35 134 144 266 268 322 274 296 296 267 304 309 320 309 312 266 309 352 344 306 209 133 240 245 287 209 214 186 195 208 219 193 164 254 288 198 167 166 167 168 168 165
307 265 17 157 88 193 288 285 269 274 265 260 297 290 295 288 291 315 300 321 344 348 352 327 214 252 322 173 241 201 205 190 134 113 185 157 247 240 224 153 169 157 164 164 153
313 323 17 27 146 242 246 256 269 304 298 260 267 296 286 308 261 266 277 308 335 325 349 321 253 210 216 214 168 198 207 186 163 161 172 203 181 162 161 151 157 168 163 162 163
306 273 290 328 292 253 255 277 286 290 246 287 279 239 262 284 286 266 265 290 322 284 360 20 255 207 220 247 230 193 207 197 187 185 186 192 173 197 177 176 180 173 155 158 164
247 321 347 281 283 328 310 318 323 319 285 292 284 304 338 294 269 291 271 269 284 298 351 349 292 241 220 230 237 250 251 203 204 186 138 166 199 196 187 183 160 172 165 171 175
309 15 256 302 313 1 246 348 312 310 293 268 295 296 301 295 333 257 200 233 239 276 303 285 333 330 221 218 234 241 237 221 196 180 156 178 195 164 155 173 180 175 175 177 180